Regional Weather Roundup
Issued by NWS

Home | Current Version | Previous Version | Graphics & Text | Print | Product List | Glossary On
Versions: 1 2 3 4 5 6 7 8 9 10 11 12 13 14 15 16 17 18 19 20 21 22 23 24 25 26 27 28 29 30 31 32 33 34 35 36 37 38 39 40 41 42 43 44 45 46 47 48 49 50
000
ASUS45 KBOU 161110
RWRCO

WEATHER ROUNDUP FOR COLORADO
NATIONAL WEATHER SERVICE DENVER/BOULDER CO
400 AM MST SAT DEC 16 2017

NOTE: "FAIR" INDICATES FEW OR NO CLOUDS BELOW 12000 FEET WITH NO
SIGNIFICANT WEATHER AND/OR OBSTRUCTIONS TO VISIBILITY.

COZ001>005-013-030-031-161200-
...NORTHWEST COLORADO...

CITY           SKY/WX    TMP DP  RH WIND       PRES   REMARKS
CRAIG          FAIR       6   1  80 W3        29.91F
HAYDEN         FAIR      20   9  62 E14       29.92F WCI   7
MEEKER         FAIR      17   7  64 CALM      29.90F
RABBIT EARS PA FAIR      27  -9  20 SW7       29.94F WCI  19
STEAMBOAT SPGS FAIR      13   8  80 CALM      29.92F
WALDEN         FAIR      19   3  49 SE8       29.90F WCI   9
$$

COZ006>008-011-161200-
...WEST CENTRAL VALLEYS...

CITY           SKY/WX    TMP DP  RH WIND       PRES   REMARKS
GRAND JUNCTION FAIR      24   7  48 E9        29.95F WCI  14
MONTROSE       FAIR      18   7  62 SE7       29.97F WCI   9
EAGLE          FAIR       9   5  84 CALM      30.01F
RIFLE          FAIR      15   5  64 CALM      29.97F
DELTA          FAIR      22   4  46 N7        29.97F WCI  13
NUCLA          FAIR      23  -6  28 E3        30.00F
$$

COZ017>023-064>068-161200-
...SOUTHWEST COLORADO...

CITY           SKY/WX    TMP DP  RH WIND       PRES   REMARKS
DURANGO        FAIR      11   6  81 NE3       29.98F
CORTEZ         FAIR      13   1  59 E5        29.98F WCI   5
PAGOSA SPRINGS FAIR      19   9  64 CALM      29.99F
TELLURIDE      FAIR      29   4  34 SE5       30.00F WCI  24
WOLF CREEK PAS FAIR      28   0  29 SW12      30.09F WCI  18
$$

COZ009-010-012-014-032>034-037-058>063-161200-
...CENTRAL COLORADO...

CITY           SKY/WX    TMP DP  RH WIND       PRES   REMARKS
ASPEN          FAIR      17   9  70 SE5       29.92F WCI  10
BUENA VISTA    FAIR      16   8  71 W6        29.93F WCI   7
COPPER MTN     NOT AVBL
BERTHOUD PASS  FAIR      25  12  58 W22       30.00F WCI  10
COTTONWOOD PAS FAIR      41   3  20 SE5       29.95F
GUNNISON       FAIR       5   0  79 CALM      30.05F
KREMMLING      FAIR       7   1  78 CALM      30.00F
LEADVILLE      FAIR      25   2  37 VRB5      29.95F WCI  19
MONARCH PASS   FAIR      27  -2  28 W29       30.12F WCI  11
SALIDA         FAIR      28   8  44 N14       29.98F WCI  16
SUNLIGHT       FAIR      27  -8  22 SW12G17   30.02F WCI  16
WILKERSON PASS FAIR      32   1  27 W9G17     30.00F WCI  24
$$

COZ069>075-161200-
...SAN LUIS VALLEY/SANGRE DE CRISTO MOUNTAINS...

CITY           SKY/WX    TMP DP  RH WIND       PRES   REMARKS
ALAMOSA        FAIR       2  -2  83 W7        29.99F WCI -11
DEL NORTE      FAIR      16   5  60 W3        30.00F
LA VETA PASS   FAIR      27  -6  24 SW31        N/A  WCI  10
SAGUACHE       FAIR      18   5  57 N13       30.00F WCI   4
$$

COZ035-036-038>040-161200-
...NORTHERN COLORADO FRONT RANGE...

CITY           SKY/WX    TMP DP  RH WIND       PRES   REMARKS
DENVER INTL AP CLOUDY    42  14  32 S10       29.75F
DMNS CITY PARK NOT AVBL
AURORA         MOCLDY    42  12  29 S6        29.76F
FRONT RANGE AP FAIR      42  19  39 SE7       29.76F
ERIE MUNI ARPT FAIR      48   4  16 E6        29.79S
BOULDER MUN AP FAIR      54   1  12 W9        29.74F
CENTENNIAL     MOCLDY    40  15  36 SE7       29.76F
BROOMFIELD     FAIR      41  18  38 SW3       29.76F
FORT COLLINS   FAIR      34  22  61 CALM      29.77R
LONGMONT       FAIR      45  10  24 W8        29.76S
$$

COZ041-046-047-076>085-087-088-161200-
...PIKES PEAK/PALMER DIVIDE AND SOUTHERN FOOTHILLS...

CITY           SKY/WX    TMP DP  RH WIND       PRES   REMARKS
COLO. SPRINGS  FAIR      36   9  32 N8        29.78F
A. F. ACADEMY  FAIR      26  10  49 N8        29.79F WCI  18
SCHRIEVER AFB  FAIR      39   6  26 N5        29.78F
CHEYENNE MTN   FAIR      45  11  26 NW8       29.74F
ELLICOTT         N/A    N/A N/A N/A CALM      29.76F
FALCON         FAIR      32   7  34 NW7       29.81F WCI  26
FORT CARSON    FAIR      32  13  45 NW8       29.75F WCI  25
LIMON          FAIR      30  14  51 CALM      29.76F
MONUMENT HILL  FAIR      39  10  30 SW7       29.82F
CANON CITY     FAIR      43  12  28 W20G25    29.77F
WALSENBURG     FAIR      46   3  17 W18G25    29.78F
TRINIDAD       FAIR      28  12  51 W12       29.79F WCI  18
$$

COZ042>045-048>051-090-091-161200-
...NORTHEAST COLORADO...

CITY           SKY/WX    TMP DP  RH WIND       PRES   REMARKS
GREELEY ARPT   FAIR      29  21  72 N9        29.76F WCI  20
AKRON          FAIR      40  12  32 NW8       29.74F
BURLINGTON     FAIR      30  11  45 W10       29.74F WCI  21
WRAY           FAIR      28  12  50 W6        29.75F WCI  22
YUMA           FAIR      32  12  43 NW8       29.74F WCI  25
STERLING       FAIR      21  16  79 SW3       29.76S
HOLYOKE        FAIR      32  18  55 W10       29.75F WCI  24
FORT MORGAN    FAIR      25  17  73 SW7       29.77S WCI  17
$$

COZ086-089-092>099-161200-
...SOUTHEAST COLORADO...

CITY           SKY/WX    TMP DP  RH WIND       PRES   REMARKS
PUEBLO         FAIR      23  13  65 CALM      29.75F
LA JUNTA       FAIR      27  11  51 W5        29.75F WCI  22
LAMAR          FAIR      16  11  80 W5        29.74F WCI   9
SPRINGFIELD      N/A     31  14  49 SW9       29.74F WCI  23
$$



USA.gov is the U.S. government's official web portal to all federal, state and local government web resources and services.